Regional Weather Roundup
Issued by NWS

Home | Current Version | Previous Version | Text Only | Print | Product List | Glossary On
Versions: 1 2 3 4 5 6 7 8 9 10 11 12 13 14 15 16 17 18 19 20 21 22 23 24 25 26 27 28 29 30 31 32 33 34 35 36 37 38 39 40 41 42 43 44 45 46 47 48 49 50
000
ASUS45 KPSR 250810
RWRAZ

ARIZONA REGIONAL HOURLY WEATHER ROUNDUP
NATIONAL WEATHER SERVICE PHOENIX AZ
100 AM MST THU DEC 25 2014

NOTE: FAIR INDICATES FEW OR NO CLOUDS BELOW 12,000 FEET WITH NO
SIGNIFICANT WEATHER AND/OR OBSTRUCTIONS TO VISIBILITY.

AZZ001>003-036-250900-
NORTHWEST ARIZONA

CITY           SKY/WX    TMP DP  RH WIND       PRES   REMARKS
BULLHEAD CITY  CLEAR     48  23  37 CALM      29.72F
KINGMAN        CLEAR     40  15  36 VRB6      29.68F
$$

AZZ004>008-015-016-018-250900-
NORTH CENTRAL ARIZONA

CITY           SKY/WX    TMP DP  RH WIND       PRES   REMARKS
GRAND CANYON   CLEAR     34  12  40 SW18G30   29.68F WCI  23
PRESCOTT       CLEAR     37  11  34 SE9       29.76F WCI  30
FLAGSTAFF      CLEAR     31   9  39 SW21      29.75F WCI  18
PAYSON         CLOUDY    37  16  41 E5        29.85F WCI  34
PAGE           CLEAR     33  18  53 SW5       29.62F HAZE    WCI  29
$$

AZZ009>014-017-250900-
NORTHEAST ARIZONA

CITY           SKY/WX    TMP DP  RH WIND       PRES   REMARKS
WINSLOW        PTCLDY    46  12  25 VRB3      29.72F
SAINT JOHNS    CLOUDY    45  11  25 VRB3      29.73F
WINDOW ROCK    CLOUDY    39  11  31 MISG      29.76F
SHOW LOW       PTCLDY    37   3  23 S21G28    29.83S WCI  27
$$

AZZ023-250900-
GREATER PHOENIX AREA

CITY           SKY/WX    TMP DP  RH WIND       PRES   REMARKS
PHOENIX        CLOUDY    52  29  41 E6        29.79F
BUCKEYE          N/A     46  32  57 E3        29.78F
LUKE AFB       CLOUDY    47  36  63 N5        29.78F
DEER VALLEY    CLOUDY    48  28  46 CALM      29.79F
SCOTTSDALE     CLOUDY    48  33  56 CALM      29.82F
MESA-GATEWAY   CLOUDY    45  32  61 SE9       29.82F
$$

AZZ027-028-250900-
SOUTHWEST MARICOPA COUNTY AND PINAL COUNTY

CITY           SKY/WX    TMP DP  RH WIND       PRES   REMARKS
CASA GRANDE    CLOUDY    46  32  57 CALM      29.81F
GILA BEND      PTSUNNY   49  29  46 S6        29.79F
$$

AZZ503-504-507>509-250900-
SOUTHEAST ARIZONA

CITY           SKY/WX    TMP DP  RH WIND       PRES   REMARKS
TUCSON         CLOUDY    49  24  37 CALM      29.84F
DAVIS-MONTHAN  CLOUDY    49  23  35 VRB3      29.82F
NOGALES        CLOUDY    41  19  41 CALM      29.88F
SIERRA VISTA   CLOUDY    46  10  23 N3        29.87F
DOUGLAS        MOCLDY    35  12  38 SE7       29.90F WCI  29
SAFFORD        CLOUDY    40  20  44 SE6       29.86F
$$

AZZ020-021-025-026-031-250900-
SOUTHWEST ARIZONA

CITY           SKY/WX    TMP DP  RH WIND       PRES   REMARKS
YUMA           CLOUDY   N/A N/A N/A SE7       29.75F
$$

CAZ031-033-041-043-047-048-061-250900-
SOUTHERN CALIFORNIA

CITY           SKY/WX    TMP DP  RH WIND       PRES   REMARKS
DOWNTOWN L.A.  PTCLDY    60  53  77 CALM      29.81F
L.A. AIRPORT   MOCLDY    60  54  80 W8        29.81F
SAN DIEGO      MOCLDY    63  55  77 SW7       29.87F
BURBANK        CLOUDY    56  45  66 N5        29.81F
ONTARIO        PTCLDY    54  47  77 NW6       29.82F
RIVERSIDE      CLEAR     50  41  71 CALM      29.82F
PALM SPRINGS   CLEAR     51  27  39 CALM      29.75F
EL CENTRO NAS  CLEAR     56  26  31 SE9       29.73F
IMPERIAL       CLEAR     51  29  42 SE6       29.74F
BLYTHE         CLEAR     55  15  20 S9        29.74F
NEEDLES        CLEAR     54  13  19 S8        29.69F
$$

NVZ020-UTZ003-250900-
SOUTHERN NEVADA-UTAH

CITY           SKY/WX    TMP DP  RH WIND       PRES   REMARKS
LAS VEGAS      MOCLDY    57  30  35 S10       29.56S
SALT LAKE CITY LGT RAIN  39  30  70 NW5       29.46R
$$

NMZ009-TXZ055-250900-
NEW MEXICO-WEST TEXAS

CITY           SKY/WX    TMP DP  RH WIND       PRES   REMARKS
ALBUQUERQUE    CLOUDY    32  10  40 S10       29.82F WCI  24
EL PASO        CLOUDY    38   9  30 CALM      29.92F
$$


........................KEY........................
SKY/WX - SKY CONDITION/WEATHER
TMP    - TEMPERATURE IN FAHRENHEIT
DP     - DEW POINT IN FAHRENHEIT
RH     - RELATIVE HUMIDITY IN PERCENT
WIND   - DIRECTION AND SPEED IN MILES PER HOUR (MPH)
VRB    - VARIABLE WIND DIRECTION
PRES   - MEAN SEA LEVEL PRESSURE IN INCHES OF MERCURY
         F - FALLING PRESSURE   R - RISING PRESSURE
         S - STEADY PRESSURE
VSB    - VISIBILITY IN MILES
HX     - HEAT INDEX IN FAHRENHEIT
WCI    - WIND CHILL INDEX IN FAHRENHEIT
TC     - TEMPERATURE IN CELSIUS WHICH IS ALSO KNOWN AS
         TEMPERATURE IN CENTIGRADE
AFB    - AIR FORCE BASE
         LUKE AFB IS LUKE AIR FORCE BASE
         DAVIS-MONTHAN IS DAVIS-MONTHAN AIR FORCE BASE
NAS    - NAVAL AIR STATION
         EL CENTRO NAS IS EL CENTRO NAVAL AIR STATION
N/A    - NOT AVAILABLE



USA.gov is the U.S. government's official web portal to all federal, state and local government web resources and services.